Regional Weather Roundup
Issued by NWS

Home | Current Version | Previous Version | Graphics & Text | Print | Product List | Glossary On
Versions: 1 2 3 4 5 6 7 8 9 10 11 12 13 14 15 16 17 18 19 20 21 22 23 24 25 26 27 28 29 30 31 32 33 34 35 36 37 38 39 40 41 42 43 44 45 46 47 48 49 50
705
ASUS43 KMPX 282201
RWRMN
WEATHER ROUNDUP FOR MINNESOTA
NATIONAL WEATHER SERVICE TWIN CITIES/CHANHASSEN MN
500 PM CDT WED JUN 28 2017


NOTE: "FAIR" INDICATES FEW OR NO CLOUDS BELOW 12,000 FEET WITH NO
SIGNIFICANT WEATHER AND/OR OBSTRUCTIONS TO VISIBILITY. N/A MEANS
CURRENT SKY AND/OR WEATHER CONDITIONS ARE NOT AVAILABLE.

MNZ060>063-068>070-282300-
   Twin Cities Metro

CITY           SKY/WX    TMP DP  RH WIND       PRES   REMARKS
TWIN CITIES    PTSUNNY   76  70  82 NW9       29.51R THUNDER
ST PAUL        TSTM      72  68  87 W8        29.52R
CRYSTAL        CLOUDY    76  63  64 W9        29.50S
BLAINE         CLOUDY    73  66  78 W8        29.52S
LAKEVILLE      CLOUDY    81  66  61 W8G20     29.51F
EDEN PRAIRIE   CLOUDY    82  66  58 SW15G26   29.50S
SOUTH ST PAUL  CLOUDY    79  64  59 SW14G25   29.50S
LAKE ELMO      PTSUNNY   72  70  94 E3        29.52S
$$
MNZ001>005-007-008-013>017-022>024-027-028-282300-
   Northwest Minnesota

CITY           SKY/WX    TMP DP  RH WIND       PRES   REMARKS
BEMIDJI        CLOUDY    61  58  91 NE7       29.54R
HALLOCK        CLOUDY    64  63  94 NE3       29.60S
ROSEAU         RAIN      61  55  82 NE7       29.61R
WARROAD        RAIN      61  55  82 E9        29.62R
THIEF RVR FALL LGT RAIN  59  57  94 NE9       29.60R
CROOKSTON      CLOUDY    63  61  94 N10       29.60R
FOSSTON        RAIN      59  57  94 N13       29.57R
DETROIT LAKES  CLOUDY    64  63  94 NW12      29.55R
MOORHEAD       PTSUNNY   70  63  78 NW18      29.58R
PARK RAPIDS    LGT RAIN  65  61  87 CALM      29.51R FOG
MAHNOMEN       DRIZZLE   62  61  96 N12       29.55R
$$
MNZ006-009>011-018-025>026-282300-
   North Central Minnesota

CITY           SKY/WX    TMP DP  RH WIND       PRES   REMARKS
BAUDETTE       LGT RAIN  62  61  96 NE6       29.59R
FLAG ISLAND    LGT RAIN  61  57  88 NE8       29.61R
INTL FALLS     LGT RAIN  63  60  90 E7        29.58S
WASKISH        LGT RAIN  64  61  88 NE9       29.56R
BIG FORK       CLOUDY    63  57  82 E5        29.56S FOG
LONGVILLE      CLOUDY    61  59  94 NE3       29.51F
GRAND RAPIDS   CLOUDY    60  59  96 E5        29.54F
CRANE LAKE     RAIN      57  57 100 CALM      29.61S
ORR            DRIZZLE   59  55  88 E3        29.55F
COOK           LGT RAIN  59  57  94 E3        29.57F
WALKER         CLOUDY    61  58  90 E6        29.52S
$$
MNZ012-019>021-037-282300-
   Northeast Minnesota

CITY           SKY/WX    TMP DP  RH WIND       PRES   REMARKS
DULUTH         LGT RAIN  57  57 100 E8        29.55F
HIBBING        LGT RAIN  58  58 100 E8        29.55S FOG
EVELETH        LGT RAIN  59  56  90 E6        29.57F
DULUTH HARBOR  DRIZZLE   52  50  93 NE21      29.55F
TWO HARBORS    LGT RAIN  59  54  82 NE9       29.55F
SILVER BAY     LGT RAIN  55  55 100 NE6       29.58F
GRAND MARAIS     N/A     54  52  93 NE8       29.64F
G MARAIS ARPRT LGT RAIN  55  52  88 NE8       29.67F
$$
MNZ029>031-032-039>041-046>048-054>057-064-282300-
   West Central Minnesota

CITY           SKY/WX    TMP DP  RH WIND       PRES   REMARKS
FERGUS FALLS   CLOUDY    66  61  82 NW22G29   29.54R
WHEATON        PTSUNNY   75  61  60 NW20      29.59R
MORRIS         PTSUNNY   77  63  61 NW20      29.56R
ALEXANDRIA     CLOUDY    71  63  75 W18G26    29.57R
ELBOW LAKE     CLOUDY    68  62  81 W15G25    29.57R
WADENA         CLOUDY    64  63  94 NW7       29.52R
GLENWOOD       CLOUDY    72  63  73 W14       29.56S
APPLETON       MOSUNNY   81  61  50 W17G24    29.56S
BENSON         CLOUDY    79  63  57 NW16      29.58S
ORTONVILLE     PTSUNNY   81  61  50 NW15G23   29.57S
MADISON        MOSUNNY   82  63  51 NW17G26   29.57S
WILLMAR        FAIR      79  64  61 NW22G28   29.58R
$$
MNZ033>034-036-042>043-049>051-058-059-282300-
   Central Minnesota

CITY           SKY/WX    TMP DP  RH WIND       PRES   REMARKS
ST CLOUD       PTSUNNY   75  66  73 W20G30    29.51S
SAUK CENTRE    CLOUDY    72  62  70 W18G28    29.55R
PAYNESVILLE    CLOUDY    74  64  69 W20G25    29.56R
AITKIN         LGT RAIN  66  64  94 CALM      29.47F
PINE RIVER     CLOUDY    63  63 100 MISG      29.54S
BRAINERD       CLOUDY    68  66  93 W9        29.49S
STAPLES        CLOUDY    64  63  94 W12G18    29.51R
LONG PRAIRIE   CLOUDY    70  61  73 SW15G21   29.54R
LITTLE FALLS   CLOUDY    70  63  78 W12       29.51R
LITCHFIELD     MOSUNNY   79  66  65 W16       29.56R
BUFFALO        PTSUNNY   76  63  62 W12       29.54S
MAPLE LAKE     PTSUNNY   76  66  70 W9G21     29.54F
HUTCHINSON     CLOUDY    79  68  69 W13G23    29.56R
$$
MNZ037-044-045-052-053-282300-
   East Central Minnesota

CITY           SKY/WX    TMP DP  RH WIND       PRES   REMARKS
PRINCETON      PTSUNNY   75  66  73 SW14G20   29.50F
MORA           CLOUDY    68  63  83 SW7       29.51F
CAMBRIDGE      CLOUDY    70  64  83 SW7       29.49S
RUSH CITY      CLOUDY    72  66  83 S3        29.50F
MOOSE LAKE     RAIN      54  52  94 NE5       29.50F
HINCKLEY       CLOUDY    72  68  88 S9        29.49F
CLOQUET        RAIN      57  55  94 E7        29.53F
MCGREGOR       CLOUDY    61  59  94 E10       29.50F
$$
MNZ071>073-080-081-089-090-097-098-282300-
   Southwest Minnesota

CITY           SKY/WX    TMP DP  RH WIND       PRES   REMARKS
MONTEVIDEO     MOSUNNY   82  64  54 N13G18    29.57S
GRANITE FALLS  SUNNY     82  64  54 NW15      29.58S
CANBY          PTSUNNY   85  60  43 W15G26    29.59S
MARSHALL       PTSUNNY   83  64  52 NW20      29.57S
REDWOOD FALLS  MOSUNNY   84  62  47 W16G24    29.55R
OLIVIA         SUNNY     79  64  61 NW15G23   29.56R
PIPESTONE      SUNNY     84  61  45 NW14      29.62S
WINDOM         SUNNY     82  64  54 W16G23    29.59F
WORTHINGTON    PTSUNNY   80  64  58 W16G22    29.63S
JACKSON        MOSUNNY   81  63  54 W14G21    29.62S
TRACY          SUNNY     83  67  58 W8G16     29.59S
SLAYTON        SUNNY     82  63  53 W12       29.62S
$$
MNZ065>067-074>077-082>085-091>093-282300-
   South Central Minnesota

CITY           SKY/WX    TMP DP  RH WIND       PRES   REMARKS
MANKATO        MOSUNNY   82  67  60 W18       29.55F
NEW ULM        SUNNY     82  64  54 W20G25    29.55S
ST JAMES       MOSUNNY   84  64  51 SW17      29.57F
FAIRMONT       MOSUNNY   84  65  52 W18       29.58F
GLENCOE        MOSUNNY   81  69  66 W15G25    29.54R
FARIBAULT      MOSUNNY   82  64  54 W17G31    29.54F
OWATONNA       MOSUNNY   82  70  65 SW20G25   29.55F
WASECA         MOSUNNY   81  68  65 SW14G23   29.56F
ALBERT LEA     SUNNY     81  66  61 SW17      29.57F
$$
MNZ078>079-086>088-094>096-282300-
   Southeast Minnesota

CITY           SKY/WX    TMP DP  RH WIND       PRES   REMARKS
ROCHESTER      MOSUNNY   76  68  76 SW18      29.58F
RED WING       CLOUDY    77  64  65 NW8       29.50S THUNDER
STANTON        PTSUNNY   82  66  57 SW13G24   29.50F
DODGE CENTER   SUNNY     81  66  61 SW17      29.57F
WINONA         CLOUDY    77  66  69 SW13      29.57F
AUSTIN         SUNNY     81  66  61 SW14      29.58F
PRESTON        CLOUDY    71  65  82 S13       29.61F
$$
ABBREVIATIONS USED IN REMARKS
   TC - TEMPERATURES IN CELSIUS
  WCI - WIND CHILL INDEX
   HX - HEAT INDEX
  VSB - VISIBILITY
$$




USA.gov is the U.S. government's official web portal to all federal, state and local government web resources and services.